Boscobel, WI

9:11 PM CDT on July 20, 2017 (GMT -0500)
Boscobel

Weather History for KOVS - March, 2013

Change the Weather History Date:

Friday, March 29, 2013

  Actual Average (KPDC) Record (KPDC)
Temperature  
Mean Temperature 38 °F -  
Max Temperature 54 °F 52 °F 86 °F (1986)
Min Temperature 24 °F 31 °F 2 °F (1969)
Degree Days  
Heating Degree Days 26    
Moisture  
Dew Point 25 °F    
Average Humidity 62    
Maximum Humidity 91    
Minimum Humidity 31    
Precipitation  
Precipitation 0.00 in - - ()
Sea Level Pressure  
Sea Level Pressure 30.30 in    
Wind  
Wind Speed 1 mph (North)    
Max Wind Speed 6 mph    
Max Gust Speed -    
Visibility 10 miles    
Events      
Averages and records for this station are not official NWS values.
T = Trace of Precipitation, MM = Missing Value Source: NWS Daily Summary

Daily Weather History Graph

Daily Weather History Graph

Search for Another Location

Airport or City:

Trip Planner

Search our weather history database for the weather conditions in past years. The results will help you decide how hot, cold, wet, or windy it might be!

Date:

Astronomy

Mar. 29, 2013 Rise Set
Actual Time 6:49 AM CDT 7:25 PM CDT
Civil Twilight 6:20 AM CDT 7:54 PM CDT
Nautical Twilight 5:47 AM CDT 8:28 PM CDT
Astronomical Twilight 5:12 AM CDT 9:03 PM CDT
Moon 10:31 PM CDT (3/29) 7:53 AM CDT (3/29)
Length of Visible Light 13h 33m
Length of Day
12h 36m
Waning Gibbous, 93% of the Moon is Illuminated
Mar 29
Waning Gibbous
Apr 2
Last Quarter
Apr 10
New
Apr 18
First Quarter
Apr 25
Full

Hourly Weather History & Observations

Time (CDT) Temp. Windchill Dew Point Humidity Pressure Visibility Wind Dir Wind Speed Gust Speed Precip Events Conditions
12:53 AM 32.0 °F - 25.0 °F 75% 30.34 in 10.0 mi Calm Calm - N/A   Overcast
1:53 AM 28.9 °F - 24.1 °F 82% 30.34 in 10.0 mi Calm Calm - N/A   Clear
2:53 AM 27.0 °F - 23.0 °F 85% 30.33 in 10.0 mi Calm Calm - N/A   Clear
3:53 AM 27.0 °F - 23.0 °F 85% 30.33 in 10.0 mi Calm Calm - N/A   Clear
4:53 AM 25.0 °F - 21.9 °F 88% 30.33 in 9.0 mi Calm Calm - N/A   Clear
5:53 AM 24.1 °F - 21.9 °F 91% 30.33 in 8.0 mi Calm Calm - N/A   Clear
6:53 AM 24.1 °F - 19.9 °F 84% 30.35 in 6.0 mi Calm Calm - N/A   Clear
7:53 AM 28.0 °F - 25.0 °F 88% 30.35 in 5.0 mi Calm Calm - N/A   Clear
8:53 AM 32.0 °F - 27.0 °F 82% 30.37 in 10.0 mi Calm Calm - N/A   Clear
9:53 AM 37.9 °F - 27.0 °F 65% 30.37 in 10.0 mi Calm Calm - N/A   Clear
10:53 AM 45.0 °F 42.6 °F 26.1 °F 48% 30.35 in 10.0 mi Variable 4.6 mph - N/A   Clear
11:53 AM 48.9 °F - 23.0 °F 36% 30.34 in 10.0 mi North 3.5 mph - N/A   Clear
12:53 PM 51.1 °F - 23.0 °F 33% 30.32 in 10.0 mi Calm Calm - N/A   Clear
1:53 PM 52.0 °F - 23.0 °F 32% 30.30 in 10.0 mi Variable 3.5 mph - N/A   Clear
2:53 PM 53.1 °F - 23.0 °F 31% 30.29 in 10.0 mi Variable 5.8 mph - 0.00 in   Clear
3:53 PM 53.1 °F - 24.1 °F 32% 30.26 in 10.0 mi Variable 3.5 mph - N/A   Clear
4:53 PM 53.1 °F - 24.1 °F 32% 30.25 in 10.0 mi Calm Calm - N/A   Overcast
5:53 PM 52.0 °F - 24.1 °F 34% 30.25 in 10.0 mi Calm Calm - N/A   Overcast
6:53 PM 51.1 °F - 26.1 °F 38% 30.24 in 10.0 mi Calm Calm - N/A   Mostly Cloudy
7:53 PM 42.1 °F - 26.1 °F 53% 30.23 in 10.0 mi Calm Calm - N/A   Clear
8:53 PM 37.9 °F 35.5 °F 28.0 °F 68% 30.24 in 9.0 mi NNE 3.5 mph - N/A   Clear
9:53 PM 36.0 °F - 28.0 °F 73% 30.24 in 10.0 mi Calm Calm - N/A   Overcast
10:53 PM 37.0 °F - 28.9 °F 73% 30.23 in 10.0 mi Calm Calm - N/A   Overcast
11:53 PM 35.1 °F - 28.9 °F 78% 30.22 in 10.0 mi Calm Calm - N/A   Overcast